FW8355 Weather Reports


Display with metric or nautical units.
time (UTC)temp
F
wind
direction
speed
MPH
gust
MPH
rain 1hr
in
rain 24hr
in
rain mn
in
humidity
%
barometer
mb
20260903183517 78 338 2.0 3.0 0.00 0.00 0.00 73 1014.7
20260903182516 79 338 1.0 3.0 0.00 0.00 0.00 73 1014.4
20260903181516 80 23 1.0 2.0 0.00 0.00 0.00 73 1014.4
20260903180516 80 45 2.0 3.0 0.00 0.00 0.00 72 1014.2
20260903175516 80 45 2.0 3.0 0.00 0.00 0.00 71 1014.2
20260903174516 81 0.0 2.0 0.00 0.00 0.00 70 1014.2
20260903173516 82 0.0 1.0 0.00 0.00 0.00 68 1014.3
20260903172516 82 113 1.0 2.0 0.00 0.00 0.00 66 1014.2
20260903171516 83 203 1.0 3.0 0.00 0.00 0.00 65 1014.1
20260903170516 83 203 3.0 6.0 0.00 0.00 0.00 64 1014.0
20260903165516 83 203 4.0 8.0 0.00 0.00 0.00 65 1014.0
20260903164516 84 203 2.0 6.0 0.00 0.00 0.00 66 1013.9
20260903163536 85 203 4.0 8.0 0.00 0.00 0.00 65 1013.8
20260903162516 85 203 5.0 10.0 0.00 0.00 0.00 67 1013.7
20260903161518 86 203 3.0 9.0 0.00 0.00 0.00 63 1013.7
20260903160536 85 225 3.0 8.0 0.00 0.00 0.00 61 1013.7
20260903155516 84 225 3.0 8.0 0.00 0.00 0.00 61 1013.6
20260903154516 84 270 4.0 10.0 0.00 0.00 0.00 62 1013.7
20260903153516 84 225 4.0 10.0 0.00 0.00 0.00 67 1013.7
20260903152516 84 225 4.0 10.0 0.00 0.00 0.00 69 1013.6
20260903151516 85 225 4.0 7.0 0.00 0.00 0.00 70 1013.6
20260903150516 86 203 5.0 12.0 0.00 0.00 0.00 68 1013.6
20260903145516 87 203 6.0 12.0 0.00 0.00 0.00 67 1013.4
20260903144516 89 203 6.0 12.0 0.00 0.00 0.00 66 1013.5
20260903143516 88 225 7.0 14.0 0.00 0.00 0.00 64 1013.4
20260903142516 88 203 7.0 14.0 0.00 0.00 0.00 67 1013.3
20260903141516 89 203 7.0 13.0 0.00 0.00 0.00 65 1013.1
20260903140516 89 225 5.0 12.0 0.00 0.00 0.00 64 1013.2
20260903135516 88 225 4.0 11.0 0.00 0.00 0.00 65 1013.2
20260903134516 86 225 7.0 13.0 0.00 0.00 0.00 69 1013.1
20260903133516 85 248 4.0 9.0 0.00 0.00 0.00 72 1013.1
20260903132516 87 270 5.0 10.0 0.00 0.00 0.00 68 1013.3
20260903131516 88 225 4.0 11.0 0.00 0.00 0.00 66 1013.4
20260903130516 88 225 5.0 12.0 0.00 0.00 0.00 63 1013.4
20260903125516 88 225 6.0 12.0 0.00 0.00 0.00 62 1013.5
20260903124516 89 203 8.0 17.0 0.00 0.00 0.00 60 1013.6
20260903123535 89 203 8.0 13.0 0.00 0.00 0.00 59 1013.7
20260903122516 89 203 6.0 14.0 0.00 0.00 0.00 59 1013.7
20260903121516 90 248 5.0 12.0 0.00 0.00 0.00 57 1013.8
20260903120536 90 203 7.0 13.0 0.00 0.00 0.00 57 1013.7
20260903115515 91 225 5.0 15.0 0.00 0.00 0.00 55 1013.7
20260903114516 90 203 6.0 11.0 0.00 0.00 0.00 56 1013.8
20260903113515 91 203 5.0 11.0 0.00 0.00 0.00 56 1013.8
20260903112515 91 225 5.0 13.0 0.00 0.00 0.00 56 1013.8
20260903111516 91 203 6.0 13.0 0.00 0.00 0.00 59 1014.0
20260903110515 90 203 5.0 10.0 0.00 0.00 0.00 56 1014.1
20260903105516 91 225 5.0 14.0 0.00 0.00 0.00 57 1014.1
20260903104515 91 203 6.0 13.0 0.00 0.00 0.00 56 1014.2
20260903103516 90 203 7.0 16.0 0.00 0.00 0.00 54 1014.3
20260903102515 91 203 5.0 12.0 0.00 0.00 0.00 52 1014.4
20260903101515 92 203 3.0 11.0 0.00 0.00 0.00 48 1014.5
20260903100515 92 203 3.0 8.0 0.00 0.00 0.00 46 1014.7
20260903095515 91 203 2.0 6.0 0.00 0.00 0.00 47 1014.9
20260903094515 91 113 2.0 6.0 0.00 0.00 0.00 48 1015.1
20260903093515 90 203 3.0 6.0 0.00 0.00 0.00 46 1015.1
20260903092515 90 270 2.0 7.0 0.00 0.00 0.00 49 1015.4
20260903091515 89 203 2.0 6.0 0.00 0.00 0.00 50 1015.4
20260903090515 89 203 2.0 5.0 0.00 0.00 0.00 50 1015.4
20260903085517 89 0.0 2.0 0.00 0.00 0.00 52 1015.4
20260903084517 88 203 1.0 5.0 0.00 0.00 0.00 53 1015.4
20260903083517 87 135 2.0 5.0 0.00 0.00 0.00 56 1015.3
20260903082517 86 113 2.0 6.0 0.00 0.00 0.00 58 1015.2
20260903081517 85 113 3.0 6.0 0.00 0.00 0.00 60 1015.2
20260903080517 85 113 2.0 4.0 0.00 0.00 0.00 59 1015.2
20260903075517 84 338 1.0 4.0 0.00 0.00 0.00 63 1015.1
20260903074517 83 68 1.0 3.0 0.00 0.00 0.00 66 1015.0
20260903073518 81 113 2.0 5.0 0.00 0.00 0.00 68 1015.0
20260903072517 80 113 3.0 5.0 0.00 0.00 0.00 70 1015.1
20260903071517 79 90 3.0 6.0 0.00 0.00 0.00 70 1015.0
20260903070517 79 113 4.0 7.0 0.00 0.00 0.00 71 1015.0
20260903065517 79 113 2.0 5.0 0.00 0.00 0.00 72 1015.1
20260903064517 78 90 2.0 4.0 0.00 0.00 0.00 73 1015.1
20260903063517 77 113 2.0 5.0 0.00 0.00 0.00 75 1015.0
20260903062517 76 113 3.0 6.0 0.00 0.00 0.00 74 1015.0
20260903061537 77 0.0 0.0 0.00 0.00 0.00 74 1015.1
20260903060517 77 0.0 0.0 0.00 0.00 0.00 75 1015.1
20260903055537 76 0.0 1.0 0.00 0.00 0.00 77 1015.1
20260903054517 74 90 1.0 3.0 0.00 0.00 0.00 78 1015.0
20260903053517 74 90 1.0 4.0 0.00 0.00 0.00 79 1015.1
20260903052517 73 0.0 2.0 0.00 0.00 0.00 80 1015.0
20260903051517 72 0.0 2.0 0.00 0.00 0.00 81 1014.9
20260903050517 72 0.0 2.0 0.00 0.00 0.00 82 1014.9
20260903045517 71 90 1.0 3.0 0.00 0.00 0.00 78 1015.0
20260903044517 71 0.0 2.0 0.00 0.00 0.00 79 1014.9
20260903043517 71 90 1.0 3.0 0.00 0.00 0.00 78 1014.9
20260903042537 71 0.0 3.0 0.00 0.00 0.00 79 1014.9
20260903041517 71 0.0 1.0 0.00 0.00 0.00 78 1014.9
20260903040537 72 0.0 1.0 0.00 0.00 0.00 78 1014.9
20260903035517 72 45 1.0 4.0 0.00 0.00 0.00 76 1014.9
20260903034517 72 90 1.0 3.0 0.00 0.00 0.00 75 1014.9
20260903033537 72 90 1.0 3.0 0.00 0.00 0.00 76 1015.0
20260903032517 72 90 1.0 2.0 0.00 0.00 0.00 76 1015.0
20260903031537 72 23 2.0 4.0 0.00 0.00 0.00 76 1015.0
20260903030537 73 23 1.0 5.0 0.00 0.00 0.00 75 1015.1
20260903025517 72 23 3.0 5.0 0.00 0.00 0.00 77 1015.0
20260903024517 72 23 1.0 4.0 0.00 0.00 0.00 76 1015.1
20260903023517 73 23 1.0 2.0 0.00 0.00 0.00 76 1015.2
20260903022536 73 23 1.0 3.0 0.00 0.00 0.00 77 1015.3
20260903021516 73 23 1.0 3.0 0.00 0.00 0.00 76 1015.3
20260903020517 73 45 1.0 2.0 0.00 0.00 0.00 77 1015.4
20260903015536 73 23 1.0 3.0 0.00 0.00 0.00 76 1015.5
20260903014537 73 45 1.0 2.0 0.00 0.00 0.00 75 1015.5
20260903013519 72 0.0 2.0 0.00 0.00 0.00 77 1015.5
20260903012516 73 0.0 2.0 0.00 0.00 0.00 74 1015.5
20260903011517 73 0.0 2.0 0.00 0.00 0.00 74 1015.6
20260903010516 73 0.0 1.0 0.00 0.00 0.00 76 1015.6
20260903005517 73 23 2.0 3.0 0.00 0.00 0.00 77 1015.6
20260903004537 73 0.0 2.0 0.00 0.00 0.00 77 1015.6
20260903003537 73 315 1.0 2.0 0.00 0.00 0.00 76 1015.7
20260903002516 73 0.0 0.0 0.00 0.00 0.00 72 1015.6
20260903001516 74 0.0 0.0 0.00 0.00 0.00 71 1015.6
20260903000517 74 90 1.0 2.0 0.00 0.00 0.00 72 1015.6
20260902235536 74 23 4.0 7.0 0.00 0.00 0.00 74 1015.7
20260902234516 74 45 2.0 3.0 0.00 0.00 0.00 75 1015.6
20260902233557 74 0.0 2.0 0.00 0.00 0.00 74 1015.6
20260902232536 75 0.0 1.0 0.00 0.00 0.00 75 1015.7
20260902231516 74 45 2.0 3.0 0.00 0.00 0.00 75 1015.7
20260902230536 75 45 2.0 4.0 0.00 0.00 0.00 74 1015.7
20260902225536 75 0.0 0.0 0.00 0.00 0.00 76 1015.8
20260902224516 75 23 1.0 3.0 0.00 0.00 0.00 74 1015.8
20260902223516 75 0.0 0.0 0.00 0.00 0.00 75 1015.8
20260902222517 75 0.0 0.0 0.00 0.00 0.00 75 1015.7
20260902221516 75 23 1.0 4.0 0.00 0.00 0.00 76 1015.8
20260902220516 75 0.0 0.0 0.00 0.00 0.00 78 1015.8
20260902215517 76 23 1.0 3.0 0.00 0.00 0.00 76 1015.8
20260902214517 76 338 3.0 5.0 0.00 0.00 0.00 74 1015.7
20260902213516 76 338 2.0 4.0 0.00 0.00 0.00 78 1015.7
20260902212517 77 338 1.0 3.0 0.00 0.00 0.00 78 1015.8
20260902211516 77 338 1.0 3.0 0.00 0.00 0.00 77 1015.8
20260902210516 77 338 1.0 3.0 0.00 0.00 0.00 75 1015.7
20260902205517 77 45 1.0 3.0 0.00 0.00 0.00 79 1015.7
20260902204517 77 45 1.0 3.0 0.00 0.00 0.00 82 1015.7
20260902203517 77 0.0 2.0 0.00 0.00 0.00 84 1015.8
20260902202517 77 338 1.0 3.0 0.00 0.00 0.00 85 1015.7
20260902201537 78 0.0 1.0 0.00 0.00 0.00 86 1015.9
20260902200516 78 0.0 1.0 0.00 0.00 0.00 85 1015.9
20260902195516 79 293 1.0 2.0 0.00 0.00 0.00 85 1016.0
20260902194516 79 293 1.0 3.0 0.00 0.00 0.00 84 1016.0
20260902193517 80 293 1.0 3.0 0.00 0.00 0.00 83 1015.8
20260902192517 80 248 1.0 4.0 0.00 0.00 0.00 83 1015.9
20260902191537 80 0.0 0.0 0.00 0.00 0.00 83 1015.7
20260902190516 80 0.0 2.0 0.00 0.00 0.00 83 1015.7
20260902185517 80 0.0 0.0 0.00 0.00 0.00 83 1015.6
20260902184516 80 0.0 4.0 0.00 0.00 0.00 83 1015.5